Location: Newark
(46.3833°N, 6.2000°E)
Time: 07:57:48
(UTC+00:00)

N. Korean satellite - Pass Details

Date: 29 February 2020
Orbit: 454 x 507 km, 97.2° (Epoch: 04 April)

Event Time Altitude Azimuth Distance (km) Brightness Sun altitude
Rises 04:49:03 0° 21° (NNE) 2,619 10.7 -15.7°
Reaches altitude 10° 04:51:20 10° 32° (NNE) 1,724 9.9 -15.3°
Maximum altitude 04:54:39 31° 96° (E) 910 8.7 -14.8°
Drops below altitude 10° 04:57:55 10° 159° (SSE) 1,690 9.5 -14.2°
Sets 05:00:08 0° 170° (S) 2,558 10.3 -13.8°
